Theta_e
305 303 303 306 306 307 306 305 306 306 306 306 306 307 304 303 301 300 300 300 299 301 302 302 302 300 300 299 299 299 299 300 302 304 304 304 308 311 319 326 327 328 327 328
302 305 306 307 307 307 307 307 308 306 306 306 306 306 304 303 302 301 300 299 300 300 301 301 300 299 299 298 298 298 298 299 301 303 305 304 307 312 318 324 327 328 327 326
301 306 306 307 307 306 307 307 308 306 307 306 306 304 304 303 302 301 300 298 299 299 300 300 299 299 298 298 297 296 296 299 302 309 306 305 306 310 316 326 327 328 328 326
305 305 307 306 307 308 309 307 308 309 307 309 304 300 306 304 302 301 299 298 298 297 298 299 299 298 298 297 296 295 297 301 305 312 307 305 307 314 321 324 326 327 327 326
305 307 308 309 307 308 308 307 308 308 308 304 306 303 304 303 303 302 300 298 297 297 298 299 298 298 297 297 295 295 299 301 310 310 307 306 308 312 321 323 323 320 323 324
305 305 307 307 306 306 306 308 306 306 305 304 308 303 299 299 301 302 299 297 296 296 296 298 297 297 297 296 295 295 298 299 303 309 310 310 312 316 317 315 313 312 311 314
303 305 305 306 307 306 308 305 306 304 305 307 305 303 301 303 302 301 300 297 295 294 295 297 297 296 296 296 294 296 298 298 299 301 304 307 312 313 313 311 310 308 307 308
303 302 305 306 307 307 308 307 305 296 306 307 303 306 305 302 300 300 299 296 294 294 294 296 296 295 295 295 295 296 297 297 297 297 298 300 301 302 303 305 305 304 304 306
304 306 305 306 306 306 307 308 305 307 294 304 302 306 303 301 301 299 298 295 293 292 292 295 294 294 294 294 295 295 297 296 296 296 296 296 298 298 297 298 299 299 301 302
304 304 304 305 305 306 307 305 305 305 299 303 304 305 305 302 301 300 297 294 293 292 291 292 292 292 292 293 294 294 295 295 296 296 295 295 298 300 301 297 297 299 297 301
303 302 304 304 305 305 306 306 306 305 306 305 304 302 300 301 300 299 296 294 293 292 291 291 291 291 291 291 291 292 293 293 293 294 294 295 296 296 296 296 295 295 296 296
301 302 303 304 303 303 305 305 305 304 305 305 306 303 301 300 298 298 296 294 293 292 290 290 291 291 290 290 290 290 291 292 292 292 293 293 294 295 295 295 295 296 296 295
302 299 298 299 302 302 303 305 305 304 303 306 305 299 299 299 298 297 294 293 292 292 290 290 290 290 290 290 290 290 291 291 291 292 292 292 292 292 292 292 293 293 293 293
301 302 299 299 303 302 304 304 304 304 305 303 304 302 300 299 299 297 294 292 291 291 291 289 289 290 290 290 290 290 291 291 291 292 292 293 293 292 292 292 291 291 291 292
299 293 301 301 301 301 303 304 304 304 303 301 300 302 302 299 298 297 293 292 292 292 291 290 289 289 290 291 290 289 289 291 291 291 292 291 292 292 292 292 291 291 291 290
297 296 296 294 296 296 299 301 303 304 304 300 300 300 299 297 295 295 294 293 292 291 291 290 289 289 289 289 289 288 287 286 287 288 288 289 290 290 291 291 290 290 290 290
298 296 297 293 294 293 291 296 299 303 302 303 302 300 296 296 298 297 295 293 292 291 290 290 290 290 289 288 288 288 287 287 287 286 285 286 287 288 289 289 290 289 289 288
295 295 291 290 291 290 296 296 296 299 301 301 299 298 299 298 297 296 295 294 292 291 290 291 291 290 289 289 287 286 285 285 285 285 285 285 285 286 286 287 288 288 288 287
295 296 290 290 286 294 295 296 296 296 298 300 301 298 297 295 295 295 293 293 292 291 292 292 290 287 287 286 285 285 285 284 284 284 284 284 284 285 285 286 287 287 287 286
295 295 291 286 290 292 297 294 295 295 297 295 301 298 296 296 298 294 293 291 291 292 293 291 290 286 286 285 284 284 284 284 283 283 283 284 284 284 284 285 285 286 286 285
290 288 291 285 289 292 293 294 295 298 301 295 299 298 297 298 296 292 292 292 292 293 293 292 289 286 284 284 284 284 283 282 282 283 283 283 284 284 284 285 285 285 285 283
294 293 289 283 285 294 294 295 295 297 297 295 298 297 297 294 293 294 293 292 292 293 293 292 288 286 284 284 283 283 283 282 283 283 284 284 283 283 283 283 284 284 282 282
296 293 293 294 294 294 295 297 296 296 297 297 297 297 296 294 294 293 292 292 293 293 292 291 289 285 283 283 283 283 283 283 283 283 283 283 283 283 282 282 282 281 281 282
294 293 294 295 294 294 294 295 295 296 297 295 296 295 295 294 293 293 293 293 292 292 291 290 288 285 284 283 283 283 283 282 282 282 282 282 282 281 281 280 280 279 280 281
293 294 294 293 294 293 292 294 295 295 294 294 294 295 295 294 293 293 293 292 292 292 292 290 288 287 285 285 284 283 283 282 282 282 282 282 281 279 279 278 279 279 279 280
292 293 296 296 294 294 294 293 294 295 294 294 295 294 294 294 293 293 293 293 292 291 291 289 288 288 287 286 286 284 282 281 281 281 281 281 279 278 277 278 278 278 279 280
Wind_Speed
4 6 4 5 2 2 2 3 3 1 2 2 2 1 4 3 7 8 8 8 8 12 20 27 31 32 34 33 33 35 35 35 31 28 25 24 25 26 24 28 28 34 33 31
6 3 3 1 2 5 4 3 1 2 1 2 2 5 3 3 4 5 6 8 12 14 16 27 34 34 36 37 38 36 36 34 33 28 26 24 22 19 21 26 29 37 35 34
5 3 2 2 3 5 3 3 2 2 4 3 2 4 5 2 2 4 7 7 13 16 19 21 33 34 37 39 43 41 38 37 38 33 25 23 23 25 18 22 25 31 38 36
5 0 3 4 3 1 3 2 2 1 3 2 4 4 4 1 6 6 8 11 13 14 15 24 30 33 36 39 37 42 41 41 38 14 17 18 16 13 16 17 22 27 29 33
1 3 2 2 3 1 3 2 2 1 2 3 1 2 4 3 5 6 10 10 10 13 15 21 28 32 36 39 41 39 36 37 27 2 7 11 15 15 14 14 11 14 7 8
2 1 2 2 2 3 4 3 4 3 2 2 3 4 4 0 3 4 6 7 10 12 13 22 29 33 38 41 42 37 36 37 41 21 3 5 10 9 17 18 20 29 26 25
5 2 1 1 4 3 2 4 2 4 3 4 2 2 4 4 3 3 4 7 8 10 11 15 23 31 36 40 39 37 38 38 42 42 44 43 31 27 23 19 21 29 31 33
5 4 6 4 3 5 4 4 4 6 3 3 3 4 2 5 5 4 3 4 6 10 11 14 21 26 31 37 40 39 39 43 44 44 43 46 42 38 34 25 32 33 31 38
4 1 1 2 1 1 4 3 3 5 2 2 3 1 2 4 2 4 5 6 8 8 10 12 21 23 27 30 36 40 40 47 48 46 45 44 47 47 42 30 36 33 37 39
5 3 1 2 1 2 3 2 3 1 2 3 4 4 4 6 3 4 4 6 7 7 8 11 18 22 23 25 29 38 44 43 47 51 47 47 53 50 47 44 43 42 36 35
4 3 1 2 6 7 3 3 3 2 3 4 1 5 4 7 6 7 5 5 5 5 7 8 16 20 23 26 26 28 29 34 39 43 46 47 50 48 43 39 37 35 33 34
3 4 4 5 2 1 2 5 6 3 5 2 2 5 5 7 7 7 6 6 3 2 5 8 13 17 22 26 27 27 26 27 28 30 36 39 39 37 34 33 32 31 32 31
4 1 2 5 2 1 5 5 4 3 2 5 5 4 4 6 6 6 7 7 3 1 4 7 12 16 19 24 26 27 28 28 28 31 35 34 31 31 32 31 30 28 27 26
3 2 5 6 2 3 5 6 7 5 3 4 5 5 6 9 8 7 7 7 6 2 1 3 8 13 18 22 24 26 27 28 29 31 32 31 28 24 24 23 24 24 24 24
3 5 3 3 2 2 3 4 9 14 6 7 4 10 14 15 12 11 8 7 7 4 2 3 5 10 16 22 24 25 25 25 26 27 27 26 24 24 24 24 23 22 23 22
2 2 2 3 3 3 5 7 9 15 13 8 3 6 4 9 7 8 10 10 8 6 4 4 7 9 14 17 19 20 21 22 22 24 25 24 24 24 23 21 20 19 19 18
6 5 3 5 2 2 6 16 19 8 8 14 12 9 8 7 13 14 12 12 11 8 6 5 6 8 9 12 13 15 16 17 20 22 22 22 22 21 20 19 19 19 17 16
5 5 2 3 2 3 6 2 4 19 7 14 3 10 17 19 14 10 11 13 11 9 8 8 10 8 7 8 10 11 13 16 18 20 20 20 21 20 19 17 17 15 15 15
4 4 2 4 4 7 5 6 8 9 11 21 19 13 10 10 7 2 7 9 11 12 15 14 9 8 7 7 9 10 13 14 16 18 19 18 18 17 16 16 14 12 10 11
3 2 4 3 4 7 4 3 4 6 7 10 22 19 18 17 10 5 12 12 15 23 21 17 12 8 6 7 7 10 12 13 14 13 13 13 14 14 15 14 14 13 11 10
3 0 7 4 4 8 7 6 6 5 5 2 19 20 23 15 4 8 14 13 22 25 22 16 13 11 7 8 6 10 10 12 10 9 9 11 12 12 12 11 11 10 8 9
8 9 4 3 2 11 9 5 8 3 1 4 11 19 19 7 10 19 17 16 22 21 21 18 16 13 10 8 6 8 9 8 8 8 8 9 11 11 11 10 8 6 7 6
5 8 6 11 9 4 13 4 6 2 3 3 14 14 14 14 12 17 16 16 21 24 23 21 19 16 11 8 6 6 6 5 6 6 7 9 10 11 11 11 10 8 8 7
5 5 3 3 8 12 9 6 3 5 4 6 9 15 15 13 18 15 15 17 20 24 26 23 20 17 13 9 7 5 5 3 5 6 7 9 10 10 10 8 8 6 7 8
6 11 8 5 7 4 8 10 7 5 6 7 10 12 13 19 16 17 15 20 22 24 26 23 22 18 15 11 7 5 3 3 3 5 7 7 8 10 10 9 6 4 5 4
6 8 9 8 8 7 5 12 11 11 9 13 14 10 13 21 19 19 19 26 27 25 26 24 20 16 15 12 9 6 4 3 2 2 4 6 7 9 9 9 6 3 3 1
Wind_Direction
5 76 149 153 130 135 167 126 134 221 265 297 252 260 131 46 57 33 9 0 347 340 331 339 341 339 336 337 332 327 319 311 301 287 272 274 263 254 249 239 242 235 229 225
27 111 184 198 92 98 71 123 152 308 345 22 310 281 144 68 76 62 11 359 355 343 340 344 343 340 344 337 337 327 318 310 298 279 261 254 259 255 247 241 237 232 229 231
128 144 140 107 61 99 48 148 167 199 330 261 340 295 165 196 97 45 25 10 3 353 336 345 342 342 345 344 337 332 323 318 309 287 248 247 259 256 254 232 231 232 234 233
85 198 124 105 90 92 155 135 104 16 52 215 89 269 237 349 11 21 8 12 359 345 337 347 341 341 349 346 339 337 332 327 318 282 228 226 245 259 249 240 228 231 234 233
191 125 120 118 137 30 144 119 107 69 70 50 195 73 252 19 354 353 5 1 352 345 344 351 345 347 352 353 351 342 346 353 358 301 222 229 240 264 270 240 162 122 181 204
112 330 51 103 83 70 125 97 53 47 69 11 217 132 279 293 227 348 350 348 354 341 335 353 350 357 359 357 358 354 3 12 28 32 13 244 237 313 98 90 81 79 70 84
358 346 14 135 96 24 88 85 6 353 2 228 132 40 261 143 110 89 352 349 351 338 335 355 358 3 1 3 0 7 18 24 32 40 52 53 58 67 68 71 87 79 75 68
150 287 178 173 206 177 182 175 163 206 201 270 319 244 250 142 111 94 60 10 7 354 346 357 1 6 6 10 10 18 30 33 38 41 46 57 56 54 53 44 67 71 73 82
136 274 47 109 54 147 180 195 157 107 29 44 214 80 254 145 118 70 45 29 22 354 341 352 360 12 11 11 19 28 34 42 40 44 47 52 58 60 51 44 58 61 72 78
207 89 260 161 114 264 193 162 84 4 133 262 269 252 219 190 174 85 46 46 28 350 342 350 351 9 12 17 24 37 43 45 47 49 48 49 58 60 62 56 54 62 60 75
152 108 165 84 204 182 172 209 212 127 166 171 252 255 198 165 167 144 116 79 50 349 341 343 351 14 23 29 25 26 38 49 54 58 58 59 62 61 62 62 64 68 68 67
172 119 170 197 253 257 251 211 182 156 201 217 142 269 144 152 164 143 143 118 86 345 343 348 8 19 32 34 36 31 33 39 47 59 68 68 75 78 75 74 69 62 59 58
163 238 59 343 342 306 218 193 195 124 82 198 149 245 175 138 154 156 154 127 120 46 3 349 25 24 34 41 42 46 48 50 55 65 73 72 67 68 70 69 69 69 70 71
112 180 194 196 173 125 203 195 183 165 159 178 223 161 190 184 179 171 166 141 147 138 2 339 29 30 45 52 49 47 51 55 57 60 60 57 55 58 63 67 70 72 75 73
146 201 213 227 192 241 240 207 191 209 192 185 215 194 196 189 187 183 173 150 149 167 160 61 43 36 46 44 46 44 46 46 50 53 53 49 48 49 50 52 53 56 59 63
153 238 95 299 294 260 268 240 218 226 235 266 209 237 207 160 127 161 174 160 163 173 177 117 87 67 59 57 49 43 38 44 50 48 44 42 41 42 42 41 44 46 51 56
159 142 136 257 354 3 304 223 214 200 203 210 212 204 152 152 173 181 180 169 170 166 172 165 125 101 82 78 68 54 40 31 33 36 38 38 36 36 35 33 34 37 42 47
148 139 107 207 22 277 240 111 202 215 221 210 142 159 176 175 177 172 186 166 164 160 165 168 148 125 97 83 70 64 53 43 38 38 33 30 27 30 31 32 34 32 30 35
183 135 147 159 208 297 263 199 174 176 250 211 204 170 155 119 102 223 191 169 160 153 167 161 150 130 120 100 86 72 64 55 46 36 31 29 27 23 23 26 25 27 29 34
185 63 134 114 186 219 248 181 158 137 281 203 189 166 150 145 168 209 181 151 145 153 160 155 147 136 122 106 96 84 75 69 57 44 36 30 26 25 23 20 17 14 13 13
133 22 193 195 231 286 237 174 163 123 243 203 182 166 160 172 186 152 148 143 152 154 159 157 151 142 139 136 126 99 88 72 64 51 42 35 29 24 18 15 15 15 5 15
164 170 178 110 151 259 169 98 179 202 69 177 161 164 162 125 125 142 145 144 149 151 160 164 156 154 153 148 133 100 82 75 71 62 42 29 22 18 12 5 5 9 21 18
212 187 182 186 202 220 195 183 207 159 130 141 153 161 145 134 142 148 145 149 153 158 169 170 169 162 154 149 139 121 97 84 76 60 46 31 19 12 7 0 359 12 10 359
236 177 209 130 227 226 211 226 215 207 150 144 159 156 148 142 149 149 145 149 155 167 173 175 173 165 165 164 149 129 99 82 59 51 40 29 18 12 7 1 358 11 1 353
182 153 178 268 272 317 251 225 191 186 143 132 150 159 151 142 153 154 154 158 165 173 178 179 178 174 168 170 166 147 125 88 63 40 35 19 8 7 6 2 352 3 356 338
190 172 185 217 183 178 229 204 176 171 174 161 155 145 154 152 153 160 163 167 167 176 179 181 181 175 174 173 176 171 154 135 95 45 33 22 11 3 359 4 9 320 301 323